| time (UTC) | temp F | wind direction | speed knots | gust knots | rain 1hr in | rain 24hr in | rain mn in | humidity % | barometer mb |
| 20260906214507 | 78 | 307 | 3.5 | 10.4 | 0.00 | 0.00 | 0.00 | 39 | 1025.0 |
| 20260906213009 | 79 | 217 | 0.9 | 7.0 | 0.00 | 0.00 | 0.00 | 41 | 1025.2 |
| 20260906211512 | 79 | 358 | 2.6 | 10.4 | 0.00 | 0.00 | 0.00 | 42 | 1025.3 |
| 20260906210014 | 80 | 66 | 4.3 | 9.6 | 0.00 | 0.00 | 0.00 | 41 | 1025.3 |
| 20260906204512 | 83 | 101 | 0.9 | 5.2 | 0.00 | 0.00 | 0.00 | 40 | 1025.5 |
| 20260906203012 | 83 | 224 | 0.9 | 4.3 | 0.00 | 0.01 | 0.00 | 39 | 1025.7 |
| 20260906201515 | 83 | 167 | 1.7 | 6.1 | 0.00 | 0.01 | 0.00 | 39 | 1025.7 |
| 20260906200014 | 84 | 97 | 1.7 | 5.2 | 0.00 | 0.01 | 0.00 | 40 | 1025.8 |
| 20260906194517 | 83 | 201 | 1.7 | 5.2 | 0.00 | 0.01 | 0.00 | 40 | 1026.0 |
| 20260906193015 | 82 | 132 | 2.6 | 6.1 | 0.00 | 0.01 | 0.00 | 40 | 1026.2 |
| 20260906191513 | 81 | 89 | 2.6 | 7.0 | 0.00 | 0.01 | 0.00 | 40 | 1026.5 |
| 20260906190017 | 81 | 129 | 1.7 | 3.5 | 0.00 | 0.01 | 0.00 | 40 | 1026.6 |
| 20260906184518 | 81 | 142 | 1.7 | 4.3 | 0.00 | 0.01 | 0.00 | 38 | 1026.9 |
| 20260906183018 | 81 | 86 | 1.7 | 5.2 | 0.00 | 0.01 | 0.00 | 40 | 1027.0 |
| 20260906181518 | 81 | 127 | 1.7 | 6.1 | 0.00 | 0.01 | 0.00 | 39 | 1027.2 |
| 20260906180012 | 80 | 124 | 0.9 | 4.3 | 0.00 | 0.01 | 0.00 | 40 | 1027.4 |
| 20260906174523 | 79 | 83 | 1.7 | 2.6 | 0.00 | 0.01 | 0.00 | 40 | 1027.8 |
| 20260906173018 | 77 | 96 | 0.9 | 2.6 | 0.00 | 0.01 | 0.00 | 39 | 1027.9 |
| 20260906171521 | 76 | 132 | 0.9 | 2.6 | 0.00 | 0.01 | 0.00 | 41 | 1028.2 |
| 20260906170024 | 76 | 125 | 0.9 | 2.6 | 0.00 | 0.01 | 0.00 | 40 | 1028.2 |
| 20260906164519 | 77 | 164 | 0.9 | 3.5 | 0.00 | 0.01 | 0.00 | 40 | 1028.2 |
| 20260906163026 | 75 | 122 | 1.7 | 3.5 | 0.00 | 0.01 | 0.00 | 40 | 1028.2 |
| 20260906161533 | 75 | 126 | 1.7 | 3.5 | 0.00 | 0.01 | 0.00 | 41 | 1028.2 |
| 20260906160027 | 75 | 197 | 1.7 | 2.6 | 0.00 | 0.01 | 0.00 | 42 | 1028.0 |
| 20260906154539 | 76 | 139 | 0.9 | 2.6 | 0.00 | 0.01 | 0.00 | 42 | 1027.9 |
| 20260906153021 | 75 | 80 | 1.7 | 2.6 | 0.00 | 0.01 | 0.00 | 39 | 1027.7 |
| 20260906151528 | 75 | 149 | 0.9 | 2.6 | 0.00 | 0.01 | 0.00 | 44 | 1027.8 |
| 20260906150026 | 75 | 139 | 0.0 | 2.6 | 0.00 | 0.01 | 0.00 | 45 | 1027.6 |
| 20260906144530 | 73 | 219 | 0.0 | 0.9 | 0.00 | 0.01 | 0.00 | 51 | 1027.6 |
| 20260906143027 | 71 | 221 | 0.0 | 0.9 | 0.00 | 0.01 | 0.00 | 56 | 1027.5 |
| 20260906141522 | 69 | 221 | 0.0 | 0.9 | 0.00 | 0.01 | 0.00 | 59 | 1027.4 |
| 20260906140034 | 66 | 219 | 0.9 | 1.7 | 0.00 | 0.01 | 0.00 | 59 | 1027.2 |
| 20260906134507 | 64 | 236 | 1.7 | 4.3 | 0.00 | 0.01 | 0.00 | 61 | 1027.2 |
| 20260906133022 | 63 | 243 | 1.7 | 2.6 | 0.00 | 0.01 | 0.00 | 63 | 1027.2 |
| 20260906131518 | 61 | 238 | 0.9 | 3.5 | 0.00 | 0.01 | 0.00 | 64 | 1027.1 |
| 20260906130043 | 59 | 243 | 1.7 | 2.6 | 0.00 | 0.01 | 0.00 | 66 | 1027.1 |
| 20260906124530 | 59 | 233 | 0.0 | 2.6 | 0.00 | 0.01 | 0.00 | 68 | 1027.1 |
| 20260906123012 | 60 | 244 | 0.9 | 4.3 | 0.00 | 0.01 | 0.00 | 66 | 1027.0 |
| 20260906121514 | 60 | 242 | 0.9 | 3.5 | 0.00 | 0.01 | 0.00 | 65 | 1026.8 |
| 20260906120024 | 60 | 239 | 0.9 | 2.6 | 0.00 | 0.01 | 0.00 | 65 | 1026.7 |
| 20260906114531 | 60 | 238 | 0.0 | 3.5 | 0.00 | 0.01 | 0.00 | 67 | 1026.7 |
| 20260906113033 | 61 | 248 | 0.0 | 3.5 | 0.00 | 0.01 | 0.00 | 65 | 1026.7 |
| 20260906111515 | 62 | 243 | 0.9 | 5.2 | 0.00 | 0.01 | 0.00 | 64 | 1026.6 |
| 20260906110020 | 62 | 236 | 0.9 | 2.6 | 0.00 | 0.01 | 0.00 | 62 | 1026.5 |
| 20260906104538 | 62 | 238 | 1.7 | 3.5 | 0.00 | 0.01 | 0.00 | 62 | 1026.6 |
| 20260906103041 | 62 | 235 | 1.7 | 3.5 | 0.00 | 0.01 | 0.00 | 62 | 1026.7 |
| 20260906101535 | 62 | 241 | 1.7 | 3.5 | 0.00 | 0.01 | 0.00 | 64 | 1026.8 |
| 20260906100025 | 61 | 243 | 0.0 | 1.7 | 0.00 | 0.01 | 0.00 | 67 | 1026.9 |
| 20260906094531 | 62 | 238 | 0.9 | 1.7 | 0.00 | 0.01 | 0.00 | 64 | 1027.0 |
| 20260906093037 | 62 | 233 | 0.9 | 2.6 | 0.00 | 0.01 | 0.00 | 61 | 1026.8 |
| 20260906091536 | 63 | 243 | 0.9 | 2.6 | 0.00 | 0.01 | 0.00 | 62 | 1026.6 |
| 20260906090035 | 62 | 233 | 0.9 | 2.6 | 0.00 | 0.01 | 0.00 | 62 | 1026.6 |
| 20260906084521 | 62 | 240 | 0.9 | 2.6 | 0.00 | 0.01 | 0.00 | 63 | 1026.6 |
| 20260906083028 | 61 | 242 | 0.9 | 2.6 | 0.00 | 0.01 | 0.00 | 62 | 1026.6 |
| 20260906081529 | 61 | 239 | 0.9 | 2.6 | 0.00 | 0.01 | 0.00 | 64 | 1026.6 |
| 20260906080029 | 60 | 247 | 0.0 | 0.9 | 0.00 | 0.01 | 0.00 | 69 | 1026.7 |
| 20260906074548 | 60 | 236 | 0.0 | 1.7 | 0.00 | 0.01 | 0.00 | 68 | 1026.7 |
| 20260906073024 | 60 | 222 | 0.0 | 0.9 | 0.00 | 0.01 | 0.00 | 71 | 1026.8 |
| 20260906071505 | 61 | 221 | 0.0 | 1.7 | 0.00 | 0.01 | 0.00 | 68 | 1026.8 |
| 20260906070018 | 60 | 247 | 0.0 | 0.9 | 0.00 | 0.01 | 0.00 | 67 | 1026.7 |
| 20260906064508 | 60 | 245 | 0.0 | 1.7 | 0.00 | 0.01 | 0.00 | 69 | 1027.0 |
| 20260906063028 | 61 | 250 | 0.0 | 1.7 | 0.00 | 0.01 | 0.00 | 66 | 1027.0 |
| 20260906061527 | 63 | 318 | 0.0 | 1.7 | 0.00 | 0.01 | 0.00 | 65 | 1026.9 |
| 20260906060004 | 65 | 323 | 0.0 | 1.7 | 0.00 | 0.01 | 0.00 | 56 | 1026.9 |
| 20260906054508 | 65 | 251 | 0.0 | 1.7 | 0.00 | 0.01 | 0.01 | 57 | 1026.7 |
| 20260906053012 | 64 | 262 | 0.0 | 4.3 | 0.00 | 0.01 | 0.01 | 59 | 1026.7 |
| 20260906051531 | 63 | 235 | 0.0 | 1.7 | 0.00 | 0.01 | 0.01 | 63 | 1026.8 |
| 20260906050035 | 64 | 231 | 0.9 | 2.6 | 0.00 | 0.01 | 0.01 | 63 | 1027.0 |
| 20260906044504 | 63 | 237 | 0.9 | 2.6 | 0.00 | 0.01 | 0.01 | 65 | 1027.1 |
| 20260906043013 | 63 | 236 | 0.0 | 2.6 | 0.00 | 0.01 | 0.01 | 65 | 1027.2 |
| 20260906041516 | 63 | 233 | 0.9 | 2.6 | 0.00 | 0.01 | 0.01 | 65 | 1027.2 |
| 20260906040040 | 64 | 243 | 0.9 | 3.5 | 0.00 | 0.01 | 0.01 | 62 | 1027.3 |
| 20260906034545 | 64 | 238 | 0.9 | 3.5 | 0.00 | 0.01 | 0.01 | 61 | 1027.5 |
| 20260906033006 | 63 | 233 | 0.9 | 1.7 | 0.00 | 0.01 | 0.01 | 62 | 1027.6 |
| 20260906031545 | 64 | 240 | 0.9 | 2.6 | 0.00 | 0.01 | 0.01 | 61 | 1027.4 |
| 20260906030018 | 64 | 240 | 0.9 | 1.7 | 0.00 | 0.01 | 0.01 | 61 | 1027.2 |
| 20260906024548 | 64 | 245 | 0.0 | 2.6 | 0.00 | 0.01 | 0.01 | 61 | 1027.0 |
| 20260906023030 | 65 | 229 | 0.0 | 3.5 | 0.00 | 0.01 | 0.01 | 58 | 1026.8 |
| 20260906021510 | 65 | 241 | 0.9 | 4.3 | 0.00 | 0.01 | 0.01 | 57 | 1026.2 |
| 20260906020015 | 65 | 229 | 0.9 | 4.3 | 0.00 | 0.01 | 0.01 | 59 | 1026.0 |
| 20260906014524 | 66 | 242 | 1.7 | 5.2 | 0.00 | 0.01 | 0.01 | 57 | 1026.1 |
| 20260906013028 | 66 | 235 | 0.9 | 3.5 | 0.00 | 0.01 | 0.01 | 59 | 1026.1 |
| 20260906011533 | 67 | 240 | 0.9 | 3.5 | 0.00 | 0.01 | 0.01 | 61 | 1026.0 |
| 20260906010026 | 67 | 238 | 0.9 | 2.6 | 0.00 | 0.01 | 0.01 | 62 | 1026.1 |
| 20260906004520 | 67 | 237 | 0.0 | 1.7 | 0.00 | 0.01 | 0.01 | 65 | 1026.3 |
| 20260906003001 | 68 | 229 | 0.0 | 2.6 | 0.00 | 0.01 | 0.01 | 67 | 1026.1 |
| 20260906001506 | 69 | 216 | 0.0 | 0.9 | 0.00 | 0.01 | 0.01 | 70 | 1026.1 |
| 20260906000012 | 70 | 237 | 0.0 | 1.7 | 0.00 | 0.01 | 0.01 | 65 | 1026.0 |
| 20260905234518 | 70 | 237 | 0.0 | 0.9 | 0.00 | 0.01 | 0.01 | 65 | 1026.1 |
| 20260905233022 | 72 | 238 | 0.0 | 0.9 | 0.00 | 0.01 | 0.01 | 66 | 1025.9 |
| 20260905231503 | 72 | 237 | 0.0 | 0.9 | 0.00 | 0.01 | 0.01 | 62 | 1025.9 |
| 20260905230015 | 69 | 237 | 0.0 | 0.9 | 0.00 | 0.01 | 0.01 | 71 | 1026.1 |
| 20260905224518 | 68 | 243 | 0.0 | 0.9 | 0.00 | 0.01 | 0.01 | 78 | 1026.2 |
| 20260905223018 | 69 | 243 | 0.9 | 1.7 | 0.00 | 0.01 | 0.01 | 79 | 1026.3 |
| 20260905221523 | 71 | 250 | 0.0 | 4.3 | 0.00 | 0.01 | 0.01 | 70 | 1026.2 |
| 20260905220004 | 71 | 239 | 0.0 | 0.9 | 0.00 | 0.01 | 0.01 | 72 | 1026.3 |